Weather in Cork

Ireland     51°50′51″N   8°29′14″W
temp.,
°C
wind,
m/s
gust,
m/s
humid.,
%
clouds,
%
prec.,
mm/h
press.,
hPa
HPBL,
m
14 april, wed
wed1401:00+3ne11915 0.0 103310
04:00+3ne11905 0.0 103310
07:00+3ne11905 0.0 103310
10:00+9e45775 0.0 1033642
13:00+10ese55683 0.0 1033993
16:00+10ese55655 0.0 1033897
19:00+8ese35775 0.0 1033542
22:00+4e229147 0.0 103421
15 april, thu
thu1501:00+5ese339362 0.0 103331
04:00+5ese22935 0.0 103327
07:00+4e22925 0.0 103320
10:00+9se457712 0.0 1033850
13:00+11sse457223 0.1 10331131
16:00+10s567431 0.2 10321045
19:00+9s457911 0.3 1032734
22:00+5sse35885 0.0 103266
16 april, fri
fri1601:00+5s3684100 0.0 103193
04:00+5s4781100 0.0 1031153
07:00+6s4778100 0.0 1030156
10:00+9s566959 0.0 1031990
13:00+10s6766100 0.0 10301131
16:00+9s6767100 0.0 10301118
19:00+8s6875100 0.0 1029857
22:00+7s6979100 0.0 1029430
17 april, sat
sat1701:00+7s61080100 0.0 1028589
04:00+8s71081100 0.1 1026755
07:00+7ssw71188100 0.4 1026723
10:00+8ssw71191100 0.7 1025790
13:00+8ssw81190100 1.0 1025907
16:00+8ssw81293100 1.0 1024782
19:00+8ssw71294100 1.3 1023694
22:00+8ssw81295100 0.5 1024651
18 april, sun
sun1801:00+8ssw81295100 0.6 1023687
04:00+9ssw71295100 0.1 1021656
07:00+9ssw71295100 0.1 1021638
10:00+9s81295100 0.1 1020684
13:00+9s81394100 0.3 1020735
16:00+9s81397100 0.6 1018716
19:00+9s71399100 2.8 1017657
22:00+9s71399100 2.2 1017556